Location: ??
(35.4627°N, 139.3695°E)
Time: 05:43:04
(UTC+00:00)

Okean 3 Rocket - Pass Details

Date: 25 November 2020
Orbit: 615 x 645 km, 82.5° (Epoch: 20 January)

Event Time Altitude Azimuth Distance (km) Brightness Sun altitude
Rises 19:46:09 0° 190° (S) 2,868 7.0 -20.6°
Reaches altitude 10° 19:48:22 10° 192° (SSW) 1,967 6.1 -20.1°
Maximum altitude 19:52:43 72° 277° (W) 650 3.4 -19.3°
Drops below altitude 10° 19:57:06 10° 2° (N) 1,988 6.0 -18.4°
Sets 19:59:21 0° 5° (N) 2,901 6.9 -17.9°
